World > North America > United States > Texas

Hourly Pettibone, TX Regional Weather

Feedback E-mail the Weather

Quick WX

Pettibone, TX Weather Maps

°F °C°F °C
Pettibone Weather Map
UTC Time: 7/2/2022, 06:00
Your Time:

Pettibone, TX Regional Weather

Expires:202207020600;;533072
ASUS44 KFWD 020515
RWRTX 
NORTH TEXAS HOURLY WEATHER ROUNDUP
NATIONAL WEATHER SERVICE FORT WORTH TX
1200 AM CDT SAT JUL 02 2022

NOTE: "FAIR" INDICATES FEW OR NO CLOUDS BELOW 12,000 FEET WITH NO
SIGNIFICANT WEATHER AND/OR OBSTRUCTIONS TO VISIBILITY.


TXZ143>147-156>162-174-175-020600-
CENTRAL TEXAS
  
CITY           SKY/WX    TMP DP  RH WIND       PRES   REMARKS
WACO           FAIR      84  68  58 SE9       29.92R                  
WACO-MCGREGOR  FAIR      82  70  66 SE9       29.94R                  
HILLSBORO      FAIR      83  69  62 SE7       29.93R                  
CORSICANA      FAIR      80  70  71 SE9       29.95R                  
MEXIA          FAIR      79  70  74 S8        29.93S                  
HEARNE         FAIR      82  73  75 E3        29.94R                  
CAMERON        FAIR      82  73  73 SE6       29.92R                  
TEMPLE         FAIR      82  72  71 SE10      29.94R                  
KILLEEN        NOT AVBL                                               
KILLEEN-SKYLRK FAIR      83  72  69 SE6       29.94R                  
GATESVILLE     FAIR      82  70  65 MISG      29.95S                  
LAMPASAS       FAIR      80  68  67 SE5       29.92                   
$$


SKY/WX - Weather  TMP - Temperature  DP - Dew Point  RH - Humidity
WIND - Wind Direction/Speed PRES - Barometric Pressure VSB - Visibility
WCI - Wind Chill Index E13G22 Wind - East Wind 13 mph/Gusts of 22 mph

Trending Headlines

Pettibone Radar Loop



Pettibone Quick Facts


National Two Day Weather Forecast


E-mail the Pettibone Weather Forecast

Voice your opinion or tell us about page issues...